Skip to main content.
Our real time weather data display below is updated continuously via our 24/7 live data feed.
 TIME   TEMPERATURE   WINDSPEED   DIRECTION   HUMIDITY   BAROMETER   RAINFALL 
18:55 14.0°C (57.2°F) 24.1 kmh (15.0 mph) S 82% 1032.8hPa (30.50 inHg) 0.5mm (0.02 in.)
17:55 14.0°C (57.2 °F) 29.6 kmh (18.4 mph) SSE 76% 1032.8hPa (30.50 inHg) 0.5mm (0.02 in.)
16:55 14.0°C (57.2 °F) 29.6 kmh (18.4 mph) S 82% 1032.8hPa (30.50 inHg) 0.5mm (0.02 in.)
15:55 15.0°C (59.0 °F) 37.0 kmh (23.0 mph) SSE 76% 1032.8hPa (30.50 inHg) 0.5mm (0.02 in.)
14:55 15.0°C (59.0 °F) 38.9 kmh (24.2 mph) SSE 76% 1032.8hPa (30.50 inHg) 0.5mm (0.02 in.)
13:55 15.0°C (59.0 °F) 35.2 kmh (21.9 mph) S 82% 1032.8hPa (30.50 inHg) 0.5mm (0.02 in.)
12:55 15.0°C (59.0 °F) 38.9 kmh (24.2 mph) SSE 82% 1033.9hPa (30.53 inHg) 0.5mm (0.02 in.)
11:55 16.0°C (60.8 °F) 33.3 kmh (20.7 mph) SSE 77% 1034.9hPa (30.56 inHg) 0.5mm (0.02 in.)
10:55 15.0°C (59.0 °F) 37.0 kmh (23.0 mph) S 82% 1034.9hPa (30.56 inHg) 0.5mm (0.02 in.)
9:55 15.0°C (59.0 °F) 35.2 kmh (21.9 mph) SSE 82% 1033.9hPa (30.53 inHg) 0.5mm (0.02 in.)
8:55 15.0°C (59.0 °F) 33.3 kmh (20.7 mph) SSE 82% 1033.9hPa (30.53 inHg) 0.0mm (0.00 in.)
7:55 15.0°C (59.0 °F) 31.5 kmh (19.6 mph) SSE 82% 1032.8hPa (30.50 inHg) 0.0mm (0.00 in.)
6:55 14.0°C (57.2 °F) 29.6 kmh (18.4 mph) SSE 93% 1032.8hPa (30.50 inHg) 0.0mm (0.00 in.)
5:55 14.0°C (57.2 °F) 29.6 kmh (18.4 mph) SSE 93% 1031.8hPa (30.47 inHg) 0.0mm (0.00 in.)
4:55 14.0°C (57.2 °F) 37.0 kmh (23.0 mph) SSE 93% 1031.8hPa (30.47 inHg) 0.0mm (0.00 in.)
3:55 14.0°C (57.2 °F) 24.1 kmh (15.0 mph) SE 93% 1031.8hPa (30.47 inHg) 0.0mm (0.00 in.)
2:55 14.0°C (57.2 °F) 22.2 kmh (13.8 mph) SE 87% 1031.8hPa (30.47 inHg) 0.0mm (0.00 in.)
1:55 14.0°C (57.2 °F) 24.1 kmh (15.0 mph) SE 87% 1031.8hPa (30.47 inHg) 0.0mm (0.00 in.)
0:55 14.0°C (57.2 °F) 22.2 kmh (13.8 mph) SE 82% 1031.8hPa (30.47 inHg) 0.0mm (0.00 in.)
23:55 13.0°C (55.4 °F) 20.4 kmh (12.7 mph) SE 87% 1031.8hPa (30.47 inHg) 0.0mm (0.00 in.)
22:55 13.0°C (55.4 °F) 24.1 kmh (15.0 mph) SE 87% 1031.8hPa (30.47 inHg) 0.0mm (0.00 in.)
21:55 14.0°C (57.2 °F) 20.4 kmh (12.7 mph) SE 82% 1031.8hPa (30.47 inHg) 0.0mm (0.00 in.)
20:55 14.0°C (57.2 °F) 25.9 kmh (16.1 mph) SE 76% 1031.2hPa (30.45 inHg) 0.0mm (0.00 in.)
19:55 14.0°C (57.2 °F) 29.6 kmh (18.4 mph) SE 82% 1030.1hPa (30.42 inHg) 0.0mm (0.00 in.)